| time (UTC) | temp C | wind direction | speed KPH | gust KPH | rain 1hr cm | rain 24hr cm | rain mn cm | humidity % | barometer mb |
| 20260505113013 | 23 | 226 | 0.0 | 4.8 | 0.00 | 0.00 | 0.00 | 93 | 1018.1 |
| 20260505101523 | 23 | 302 | 1.6 | 4.8 | 0.00 | 0.00 | 0.00 | 95 | 1017.3 |
| 20260505100032 | 23 | 292 | 0.0 | 3.2 | 0.00 | 0.00 | 0.00 | 95 | 1017.2 |
| 20260505094516 | 23 | 302 | 0.0 | 4.8 | 0.00 | 0.00 | 0.00 | 95 | 1017.1 |
| 20260505093026 | 23 | 5 | 0.0 | 0.0 | 0.00 | 0.00 | 0.00 | 95 | 1016.9 |
| 20260505090005 | 23 | 8 | 0.0 | 0.0 | 0.00 | 0.00 | 0.00 | 95 | 1016.9 |
| 20260505084503 | 23 | 30 | 0.0 | 0.0 | 0.00 | 0.00 | 0.00 | 96 | 1016.7 |
| 20260505080003 | 23 | 360 | 0.0 | 0.0 | 0.00 | 0.00 | 0.00 | 95 | 1016.5 |
| 20260505074509 | 23 | 360 | 0.0 | 0.0 | 0.00 | 0.00 | 0.00 | 95 | 1016.4 |
| 20260505073007 | 23 | 2 | 0.0 | 0.0 | 0.00 | 0.00 | 0.00 | 95 | 1016.4 |
| 20260505071505 | 23 | 8 | 0.0 | 0.0 | 0.00 | 0.00 | 0.00 | 95 | 1016.4 |
| 20260505070006 | 23 | 8 | 0.0 | 3.2 | 0.00 | 0.00 | 0.00 | 94 | 1016.4 |
| 20260505063005 | 23 | 318 | 0.0 | 3.2 | 0.00 | 0.00 | 0.00 | 94 | 1016.6 |
| 20260505061511 | 23 | 300 | 1.6 | 6.4 | 0.00 | 0.00 | 0.00 | 94 | 1016.6 |
| 20260505060006 | 23 | 307 | 1.6 | 4.8 | 0.00 | 0.00 | 0.00 | 94 | 1016.7 |
| 20260505053010 | 23 | 302 | 1.6 | 4.8 | 0.00 | 0.00 | 0.00 | 94 | 1017.3 |
| 20260505051517 | 23 | 265 | 0.0 | 1.6 | 0.00 | 0.00 | 0.00 | 93 | 1017.4 |
| 20260505041513 | 23 | 261 | 0.0 | 0.0 | 0.00 | 0.00 | 0.00 | 93 | 1017.9 |
| 20260505040015 | 23 | 261 | 0.0 | 0.0 | 0.00 | 0.00 | 0.00 | 93 | 1018.1 |
| 20260505034512 | 24 | 253 | 0.0 | 0.0 | 0.00 | 0.00 | 0.00 | 92 | 1018.2 |
| 20260505033008 | 23 | 248 | 0.0 | 0.0 | 0.00 | 0.00 | 0.00 | 91 | 1018.3 |
| 20260505031524 | 24 | 250 | 0.0 | 0.0 | 0.00 | 0.00 | 0.00 | 91 | 1018.2 |
| 20260505030011 | 24 | 338 | 1.6 | 3.2 | 0.00 | 0.00 | 0.00 | 91 | 1018.2 |
| 20260505024516 | 23 | 301 | 1.6 | 4.8 | 0.00 | 0.00 | 0.00 | 92 | 1018.2 |
| 20260505023018 | 23 | 257 | 0.0 | 0.0 | 0.00 | 0.00 | 0.00 | 92 | 1018.2 |
| 20260505021516 | 23 | 264 | 0.0 | 4.8 | 0.00 | 0.00 | 0.00 | 91 | 1018.1 |
| 20260505013017 | 24 | 275 | 0.0 | 3.2 | 0.00 | 0.00 | 0.00 | 90 | 1017.8 |
| 20260505011514 | 24 | 293 | 0.0 | 0.0 | 0.00 | 0.00 | 0.00 | 89 | 1017.6 |
| 20260505010018 | 24 | 295 | 0.0 | 0.0 | 0.00 | 0.00 | 0.00 | 89 | 1017.3 |
| 20260505004518 | 24 | 284 | 0.0 | 1.6 | 0.00 | 0.00 | 0.00 | 88 | 1017.0 |
| 20260505003024 | 25 | 288 | 0.0 | 0.0 | 0.00 | 0.00 | 0.00 | 87 | 1017.0 |
| 20260505001520 | 25 | 283 | 0.0 | 0.0 | 0.00 | 0.00 | 0.00 | 86 | 1017.0 |
| 20260505000017 | 25 | 342 | 0.0 | 3.2 | 0.00 | 0.00 | 0.00 | 86 | 1017.1 |
| 20260504234505 | 25 | 1 | 0.0 | 3.2 | 0.00 | 0.00 | 0.00 | 85 | 1017.1 |
| 20260504233004 | 25 | 294 | 0.0 | 3.2 | 0.00 | 0.00 | 0.00 | 84 | 1016.8 |
| 20260504231512 | 25 | 311 | 1.6 | 6.4 | 0.00 | 0.00 | 0.00 | 83 | 1016.7 |
| 20260504230011 | 25 | 284 | 1.6 | 6.4 | 0.00 | 0.00 | 0.00 | 82 | 1016.7 |
| 20260504223007 | 26 | 270 | 1.6 | 12.9 | 0.00 | 0.00 | 0.00 | 82 | 1016.3 |
| 20260504221506 | 26 | 294 | 3.2 | 9.7 | 0.00 | 0.00 | 0.00 | 80 | 1016.2 |
| 20260504220004 | 27 | 311 | 4.8 | 9.7 | 0.00 | 0.00 | 0.00 | 78 | 1015.9 |
| 20260504214535 | 27 | 27 | 3.2 | 12.9 | 0.00 | 0.00 | 0.00 | 77 | 1015.7 |
| 20260504213017 | 27 | 293 | 3.2 | 9.7 | 0.00 | 0.00 | 0.00 | 76 | 1015.5 |
| 20260504211518 | 27 | 313 | 3.2 | 16.1 | 0.00 | 0.00 | 0.00 | 76 | 1015.5 |
| 20260504210018 | 28 | 269 | 4.8 | 22.5 | 0.00 | 0.00 | 0.00 | 75 | 1015.5 |
| 20260504204511 | 28 | 332 | 11.3 | 19.3 | 0.00 | 0.00 | 0.00 | 75 | 1015.4 |
| 20260504203006 | 28 | 326 | 8.0 | 17.7 | 0.00 | 0.00 | 0.00 | 75 | 1015.4 |
| 20260504201507 | 28 | 274 | 6.4 | 19.3 | 0.00 | 0.00 | 0.00 | 72 | 1015.5 |
| 20260504194520 | 29 | 342 | 4.8 | 19.3 | 0.00 | 0.00 | 0.00 | 72 | 1015.6 |
| 20260504191514 | 28 | 333 | 6.4 | 14.5 | 0.00 | 0.00 | 0.00 | 75 | 1015.8 |
| 20260504190008 | 28 | 252 | 8.0 | 19.3 | 0.00 | 0.00 | 0.00 | 77 | 1015.7 |
| 20260504184513 | 28 | 298 | 4.8 | 14.5 | 0.00 | 0.00 | 0.00 | 77 | 1016.0 |
| 20260504183015 | 28 | 283 | 8.0 | 19.3 | 0.00 | 0.00 | 0.00 | 75 | 1016.1 |
| 20260504181520 | 28 | 330 | 1.6 | 14.5 | 0.00 | 0.00 | 0.00 | 75 | 1016.1 |
| 20260504174516 | 30 | 271 | 4.8 | 22.5 | 0.00 | 0.00 | 0.00 | 68 | 1016.5 |
| 20260504173012 | 29 | 345 | 11.3 | 25.7 | 0.00 | 0.00 | 0.00 | 68 | 1016.5 |
| 20260504171516 | 30 | 250 | 11.3 | 19.3 | 0.00 | 0.00 | 0.00 | 66 | 1016.8 |